FENGYUN 1C DEB, 30020

Orbit data source: Space-Track

FENGYUN 1C DEB, 30020 is space debris in SSO originally from a launch on Mon, 10 May 1999 UTC launched from the Taiyaun Space Center, China (TSC). Fengyun 1C debris stems from the Chinese weather satellite Fengyun-1C, which was intentionally destroyed by a Chinese anti-satellite missile in 2007. This event dramatically increased the amount of space debris, with thousands of trackable fragments posing hazards to satellites and human spaceflight. The Fengyun 1C debris cloud has become a focal point in discussions about space sustainability and the need for international regulations to prevent the creation of new debris.

Loading next visibility...
Identifier
30020, 1999-025MV
Orbit
SSO
Country
Flag of CNCN / PRC
Related business
Manufacturer
Unknown
Mission
Spacecraft
Bus & Motor
Unknown
Mass
Unknown
Launch date (UTC)
1999-05-10 (27 years ago)
Launch vehicle
Unknown
Launch site
Taiyaun Space Center, China (TSC)
Object type
Payload
Rocket body
Debris
Shape & HBR
Unknown shape, 0.1 m
Radar Cross Section
Small (<0.1 m²)

Expand to show TLE details & history
Last TLE update: 16 hours ago

TLE from 16 hours ago
0 FENGYUN 1C DEB
1 30020U 99025MV  26145.51593957  .00000518  00000-0  30253-3 0  9992
2 30020  98.8473 150.3048 0181906 332.4432 179.3677 14.04761581989578
Epoch: 2026-05-25T12:22Z
TLE epoch observation values (Epoch: 2026-05-25T12:22:57.178Z)
Latitude
27.84311°
Longitude
-93.84443°
Altitude
1,012.746 km
Speed
7.281 km/s
True Right ascension
22h 19m 59s
True Declination
27° 42' 22"
Sunlit
Object was in daylight at epoch
Visualization orbit readout
Latitude
Unknown
Longitude
Unknown
Altitude
Unknown
Speed
Unknown
Apparent Right ascension
Unknown
Apparent Declination
Unknown
Sunlit
N/A
Visualization observer readout
Local Sidereal Time
13:59:33
Azimuth
Unknown
Elevation
Unknown
Doppler factor
Unknown
Orbital elements
Apogee altitude
1,006.468 km
Perigee altitude
742.607 km
Semi-major axis
7,252.674 km
Eccentricity
0.01819
Inclination
98.8473°
RAAN
150.3048°
Arg. of periapsis
332.4432°
True anomaly
179.39019°
Mean anomaly
179.3677°
Eccentric anomaly
179.379°
Mean motion
3.51395 °/min
Orbital period
102.45 mins
BSTAR
0.00030253
Loading maneuver chart data...
Computing Atmospheric mass density...

Documentation

Showing up to 5 results
|